Weather in San Pablo

Philippines     14°04′20″N   121°19′45″E
temp.,
°C
wind,
m/s
gust,
m/s
humid.,
%
clouds,
%
prec.,
mm/h
press.,
hPa
HPBL,
m
22 april, thu
thu2223:00+24wsw1396100 0.0 1007118
02:00+24wsw1298100 0.1 100680
05:00+23wsw1399100 0.1 100694
08:00+28wsw367569 0.1 1008912
11:00+31wsw465854 0.3 10071412
14:00+33wsw565077 0.3 10041880
17:00+30wsw465787 0.0 10051262
20:00+25w2586100 0.0 1007302
23 april, fri
fri2323:00+24wsw1394100 0.0 1008134
02:00+25w2487100 0.1 1006288
05:00+25nw1285100 0.0 1006103
08:00+28nnw126691 0.0 1008808
11:00+33w124864 0.1 10071784
14:00+35w3341100 0.1 10052577
17:00+28sw366998 1.3 1006324
20:00+24w2391100 1.4 100869
24 april, sat
sat2423:00+22w119748 0.0 100926
02:00+21wnw119862 0.0 100829
05:00+21nw119716 0.0 100913
08:00+28nnw11698 0.0 1011591
11:00+36nw12345 0.1 10092343
14:00+35ssw333792 0.1 10072493
17:00+28se1458100 0.2 1007162
20:00+23ssw117841 0.2 101124
25 april, sun
sun2523:00+21wnw00925 0.0 101111
02:00+20wnw00955 0.0 101011
05:00+20w00961 0.0 101011
08:00+28n11585 0.0 1012684
11:00+36wsw012712 0.0 10102119
14:00+35sse243040 0.0 10073009
17:00+27se2467100 0.2 1009176
20:00+25sse127930 0.3 101173
26 april, mon
mon2623:00+24s008673 0.1 101228
02:00+22wsw11938 0.3 101012
05:00+21nnw00965 0.0 101111
08:00+27ene12674 0.0 1012694
11:00+32ne224696 0.6 10112011
14:00+29ene226487 2.3 1009707
17:00+25nne248053 1.6 1010272
20:00+22ne11925 1.8 101231